Location: Audinghen
(50.8518°N, 1.6129°E)
Time: 01:21:42
(UTC+00:00)

CZ-2D R/B - Pass Details

Date: 07 August 2020
Orbit: 792 x 845 km, 98.7° (Epoch: 25 September)

Event Time Altitude Azimuth Distance (km) Brightness Sun altitude
Rises 00:28:32 0° 24° (NNE) 3,410 6.7 -22.5°
Reaches altitude 10° 00:31:23 10° 38° (NE) 2,475 5.5 -22.4°
Maximum altitude 00:35:47 24° 91° (E) 1,679 3.8 -22.3°
Enters shadow 00:38:03 19° 125° (SE) 1,920 3.8 -22.3°
